This demonstration page uses our WeatherBlox Daily Observations layout. Learn more.

Left ArrowRight Arrow

31.84235, -102.49876

Hourly Observations for June 5, 2022

Temp ( °F °C ) Dew Point ( °F °C ) Humidity (%) Winds ( mph kmh ) Pressure ( in mb ) Visibility ( mi km ) Precip ( " mm )
12:53 am 00:53 Clear 80 26.7 59 15 49 49 S 14 22 29.63 1004 10 16 0.00 0.00
1:53 am 01:53 Clear 78 25.6 59 15 52 52 S 13 20 29.61 1003 10 16 0.00 0.00
2:53 am 02:53 Clear 78 25.6 58 14.4 50 50 S 12 19 29.60 1002 10 16 0.00 0.00
3:53 am 03:53 Clear 77 25 57 13.9 50 50 S 13 20 29.59 1002 10 16 0.00 0.00
4:53 am 04:53 Clear 75 23.9 57 13.9 54 54 S 8 13 29.60 1002 10 16 0.00 0.00
5:53 am 05:53 Clear 74 23.3 57 13.9 56 56 SSW 10 17 29.60 1002 10 16 0.00 0.00
6:53 am 06:53 Sunny 74 23.3 57 13.9 56 56 SSW 13 20 29.60 1002 10 16 0.00 0.00
7:53 am 07:53 Sunny 76 24.4 56 13.3 50 50 SSW 15 24 29.60 1003 10 16 0.00 0.00
8:53 am 08:53 Sunny 78 25.6 56 13.3 47 47 SSW 15 24 29.62 1003 10 16 0.00 0.00
9:53 am 09:53 Sunny 82 27.8 53 11.7 37 37 SW 12 19 29.61 1003 10 16 0.00 0.00
10:53 am 10:53 Sunny 86 30 41 5 20 20 W 13 20 29.60 1003 10 16 0.00 0.00
11:53 am 11:53 Sunny 89 31.7 42 5.6 19 19 W 16 26 29.61 1003 10 16 0.00 0.00
12:53 pm 12:53 Sunny 94 34.4 36 2.2 13 13 W 16 26 29.59 1002 10 16 0.00 0.00
1:53 pm 13:53 Sunny 97 36.1 33 0.6 10 10 W 18 30 29.57 1002 10 16 0.00 0.00
2:53 pm 14:53 Sunny 100 37.8 31 -0.6 9 9 WNW 18 30 29.55 1001 10 16 0.00 0.00
3:53 pm 15:53 Sunny 100 37.8 30 -1.1 8 8 W 20 31 29.54 1000 10 16 0.00 0.00
4:53 pm 16:53 Sunny 101 38.3 28 -2.2 8 8 W 22 35 29.53 1000 10 16 0.00 0.00
5:53 pm 17:53 Sunny 100 37.8 27 -2.8 7 7 WNW 14 22 29.52 1000 10 16 0.00 0.00
6:53 pm 18:53 Sunny 100 37.8 27 -2.8 7 7 W 10 17 29.51 999 10 16 0.00 0.00
7:53 pm 19:53 Sunny 98 36.7 27 -2.8 8 8 W 9 15 29.52 1000 10 16 0.00 0.00
8:53 pm 20:53 Clear 92 33.3 32 0 12 12 W 6 9 29.52 1000 10 16 0.00 0.00
9:53 pm 21:53 Clear 86 30 39 3.9 19 19 SW 5 7 29.53 1000 10 16 0.00 0.00
10:53 pm 22:53 Clear 86 30 37 2.8 18 18 SW 3 6 29.54 1001 10 16 0.00 0.00
11:53 pm 23:53 Clear 82 27.8 41 5 23 23 SSW 5 7 29.55 1001 10 16 0.00 0.00

Powered by AerisWeather